Regional Weather Roundup
Issued by NWS

Home | Current Version | Previous Version | Graphics & Text | Print | Product List | Glossary On
Versions: 1 2 3 4 5 6 7 8 9 10 11 12 13 14 15 16 17 18 19 20 21 22 23 24 25 26 27 28 29 30 31 32 33 34 35 36 37 38 39 40 41 42 43 44 45 46 47 48 49 50
000
ASUS44 KMEG 011210
RWRTN
TENNESSEE HOURLY STATE WEATHER ROUNDUP
NATIONAL WEATHER SERVICE MEMPHIS TN
700 AM CDT SAT AUG 01 2015

TNZ002-004-019-021-049-052-054-088>092-011300-
WEST TENNESSEE

CITY           SKY/WX    TMP DP  RH WIND       PRES   REMARKS
MEMPHIS INTL   PTCLDY    76  66  71 CALM      30.05R
NWS MEMPHIS      N/A     68 N/A N/A MISG        N/A
JACKSON        CLEAR     67  63  87 CALM      30.05R
DYERSBURG        N/A    N/A N/A N/A MISG        N/A
PARIS          SUNNY     66  64  94 CALM      30.05R
LEXINGTON      SUNNY     64  64 100 CALM      30.04R
$$

TNZ008-025-027-028-033-062-065-066-011300-
NORTH MIDDLE TENNESSEE

CITY           SKY/WX    TMP DP  RH WIND       PRES   REMARKS
NASHVILLE      MOSUNNY   67  65  93 CALM      30.05R
CLARKSVILLE    SUNNY     69  67  93 S3        30.04R
SMYRNA         SUNNY     65  65 100 CALM      30.06R
CROSSVILLE     SUNNY     63  60  90 CALM      30.10R
$$

TNZ061-075-076-078-094-096-097-011300-
SOUTH MIDDLE TENNESSEE

CITY           SKY/WX    TMP DP  RH WIND       PRES   REMARKS
FAYETTEVILLE   SUNNY     66  61  82 NE5       30.05R
TULLAHOMA      SUNNY     64  59  82 CALM      30.07R
WINCHESTER     SUNNY     61  59  94 CALM      30.06R
MCMINNVILLE    SUNNY     64  64 100 CALM      30.06R
COLUMBIA       SUNNY     66  66 100 CALM      30.05R
SHELBYVILLE    SUNNY     64  64 100 CALM      30.06R
$$

TNZ017-018-042-046-047-011300-
NORTHEAST TENNESSEE

CITY           SKY/WX    TMP DP  RH WIND       PRES   REMARKS
TRI CITIES     MOSUNNY   63  60  90 CALM      30.07R
ELIZABETHTON   SUNNY     61  55  82 CALM      30.07S
$$

TNZ012-013-036-069-073-074-011300-
CENTRAL EAST TENNESSEE

CITY           SKY/WX    TMP DP  RH WIND       PRES   REMARKS
KNOXVILLE      MOSUNNY   66  61  84 CALM      30.04R
OAK RIDGE      SUNNY     66  62  87 CALM      30.06R
GATLINBURG     SUNNY     63  59  88 CALM      30.04S
MORRISTOWN     SUNNY     66  61  82 CALM      30.06S
$$

TNZ083-085-099-011300-
SOUTHEAST TENNESSEE

CITY           SKY/WX    TMP DP  RH WIND       PRES   REMARKS
CHATTANOOGA    MOSUNNY   71  62  73 N6        30.03R
$$

SKY/WX REPORTED AS FAIR MEANS FEW OR NO CLOUDS BELOW
12 THOUSAND FEET.




USA.gov is the U.S. government's official web portal to all federal, state and local government web resources and services.